Location: Hobi?a Gr?di?te
(45.4833°N, 22.7833°E)
Time: 13:49:24
(UTC+00:00)

ATLAS 5 CENTAUR R/B - Visible Passes

Search period start: 25 September 2023 00:00
Search period end: 05 October 2023 00:00
Orbit: 474 x 1152 km, 63.3° (Epoch: 16 August)

Date Brightness Start Highest point End Pass type
(mag) Time Alt. Az. Time Alt. Az. Time Alt. Az.
25 Sep 3.7 01:18:45 19° NNE 01:18:45 19° NNE 01:20:11 10° NNE visible
26 Sep 4.2 00:54:46 14° NNE 00:54:46 14° NNE 00:55:28 10° NNE visible
26 Sep 3.8 02:36:17 10° NNW 02:37:09 11° NNW 02:38:02 10° N visible
27 Sep 3.8 02:11:53 11° NNW 02:12:12 11° NNW 02:13:37 10° N visible
28 Sep 4.0 01:47:50 12° NNW 01:47:50 12° NNW 01:49:04 10° N visible
29 Sep 4.2 01:23:46 12° N 01:23:46 12° N 01:24:27 10° N visible
30 Sep 4.5 00:59:40 10° N 00:59:40 10° N 00:59:48 10° N visible
02 Oct 4.3 03:38:15 10° N 03:39:59 12° NNE 03:41:49 10° NE visible
03 Oct 4.4 03:13:43 10° N 03:14:57 11° NNE 03:16:14 10° NE visible
04 Oct 4.6 02:49:31 10° NNE 02:49:54 10° NNE 02:50:17 10° NNE visible
